This is the latest recevied weather packets stored in our database for station/object KE8KMM. If no packets are shown the sender has not sent any weather packets the latest 10 day(s).
| Time | Temp. | Humidity | Pressure | Rain* | Wind** | Luminosity | Snow |
|---|---|---|---|---|---|---|---|
| 1777889833 | 7.78° C | 78% | 1009.1 hPa | 0 mm | - | 0 W/m² | - |
| 1777889530 | 8.89° C | 75% | 1009.1 hPa | 0 mm | - | 0 W/m² | - |
| 1777889227 | 8.89° C | 73% | 1009.1 hPa | 0 mm | - | 0 W/m² | - |
| 1777888926 | 8.33° C | 74% | 1009.1 hPa | 0 mm | - | 0 W/m² | - |
| 1777888622 | 8.89° C | 76% | 1009.3 hPa | 0 mm | - | 0 W/m² | - |
| 1777888318 | 8.89° C | 75% | 1009.3 hPa | 0 mm | - | 0 W/m² | - |
| 1777888014 | 8.89° C | 74% | 1009.3 hPa | 0 mm | - | 0 W/m² | - |
| 1777887712 | 8.89° C | 75% | 1009.4 hPa | 0 mm | - | 0 W/m² | - |
| 1777887409 | 8.89° C | 73% | 1009.2 hPa | 0 mm | - | 0 W/m² | - |
| 1777887103 | 8.89° C | 78% | 1009.4 hPa | 0 mm | - | 0 W/m² | - |
| 1777886800 | 8.89° C | 74% | 1009.5 hPa | 0 mm | - | 0 W/m² | - |
| 1777886496 | 8.33° C | 80% | 1009.5 hPa | 0 mm | - | 0 W/m² | - |
| 1777886195 | 8.33° C | 80% | 1009.6 hPa | 0 mm | - | 0 W/m² | - |
| 1777885892 | 8.33° C | 76% | 1009.8 hPa | 0 mm | - | 0 W/m² | - |
| 1777885591 | 8.33° C | 77% | 1009.7 hPa | 0 mm | - | 0 W/m² | - |
| 1777885288 | 8.89° C | 76% | 1009.9 hPa | 0 mm | - | 0 W/m² | - |
| 1777884986 | 8.89° C | 75% | 1009.7 hPa | 0 mm | - | 0 W/m² | - |
| 1777884681 | 8.89° C | 76% | 1009.7 hPa | 0 mm | - | 0 W/m² | - |
| 1777884378 | 10° C | 71% | 1010 hPa | 0 mm | - | 0 W/m² | - |
| 1777884075 | 10° C | 72% | 1010 hPa | 0 mm | - | 0 W/m² | - |
| 1777883772 | 9.44° C | 71% | 1010 hPa | 0 mm | - | 0 W/m² | - |
| 1777883469 | 9.44° C | 72% | 1010 hPa | 0 mm | - | 0 W/m² | - |
| 1777883165 | 10° C | 74% | 1009.8 hPa | 0 mm | - | 0 W/m² | - |
| 1777882861 | 10° C | 68% | 1009.9 hPa | 0 mm | - | 0 W/m² | - |
| 1777882558 | 10.56° C | 72% | 1010.2 hPa | 0 mm | - | 0 W/m² | - |
* Rain latest hour (hover to see other rain measurements)
** Current wind speed in m/s (hover to see current wind gust speed)